Wind_Speed
16 16 19 21 21 22 23 22 22 21 22 24 24 23 21 21 19 18 17 16 15 16 17 16 14 10 9 13 16 15 14 11 10 11 10 9 9 9 9 9 9 10 10 10 10 9 9 11 12 12 13 14 14 15 15 14 14 11 10 14 15 15 17 18 17 18 17 14 10 8 8 8 9 12 10 8 8 7 9 10 9 9 10 11 12
15 15 19 23 24 24 24 22 22 22 22 25 25 23 22 22 20 19 18 16 15 15 15 14 11 8 10 14 16 15 13 11 12 12 10 9 10 10 10 8 6 8 10 10 10 10 10 11 12 12 15 16 16 15 13 12 11 10 10 12 13 15 18 18 17 16 15 14 11 10 9 7 6 8 6 4 5 6 8 10 10 10 11 12 12
17 15 18 23 23 24 24 23 23 24 25 26 25 24 23 22 20 19 17 15 15 15 13 12 10 8 10 14 15 14 13 13 14 12 10 10 10 10 10 8 6 9 10 10 9 10 11 12 13 14 17 18 17 15 13 12 9 9 10 9 9 14 17 17 17 16 14 13 13 12 10 7 5 5 3 3 3 4 6 8 10 12 12 13 12
17 15 17 21 21 22 25 25 26 27 27 27 27 26 23 21 20 18 15 16 17 15 12 12 11 9 9 12 14 14 13 13 13 11 11 10 9 8 7 8 9 10 11 10 10 11 13 13 14 16 18 18 18 17 14 11 9 9 9 9 7 11 17 17 15 13 12 13 14 13 10 8 6 6 6 7 7 5 5 7 9 11 12 13 13
18 17 19 21 22 24 28 30 29 28 28 27 27 25 21 19 19 17 16 19 18 14 12 13 12 10 9 12 14 13 12 12 11 12 12 9 8 7 7 10 13 13 12 11 11 12 13 14 17 18 18 17 17 15 10 7 9 11 10 9 7 10 15 14 13 12 9 9 13 14 11 9 9 10 11 11 11 9 9 8 8 9 11 12 13
16 19 21 22 24 28 30 30 29 28 27 26 25 22 19 18 17 17 20 21 17 14 14 14 13 11 10 12 13 12 11 11 11 12 13 10 8 9 8 9 11 12 11 11 11 12 12 15 19 18 14 13 12 11 8 9 11 11 10 8 7 11 13 10 11 13 9 6 11 16 14 12 13 14 14 14 14 14 12 10 9 10 11 13 13
16 18 22 23 26 30 30 28 27 27 25 24 22 21 19 18 17 19 22 21 18 16 16 14 12 12 12 13 14 12 13 13 11 11 13 11 10 10 9 9 9 10 10 10 11 11 11 15 18 15 11 12 12 10 9 11 11 10 9 8 7 9 11 9 9 9 7 5 10 15 15 14 15 15 14 14 15 16 16 15 13 12 12 13 14
17 18 23 27 30 32 31 29 28 26 25 23 21 20 18 18 19 19 20 20 20 19 17 14 13 15 15 15 15 14 14 14 12 12 12 12 12 12 10 9 9 10 11 11 12 11 12 16 18 14 12 13 14 10 8 10 11 9 8 8 8 7 8 9 9 7 5 6 9 14 14 13 14 16 15 16 18 19 18 18 18 17 15 14 14
18 19 23 31 34 33 31 30 29 28 26 24 21 20 19 20 20 19 18 20 19 18 17 15 14 16 16 15 15 14 14 14 12 12 12 12 13 14 12 10 10 11 12 13 11 9 10 13 14 13 12 13 13 12 9 9 10 9 8 8 8 7 7 10 11 8 6 7 9 12 12 11 13 16 15 15 17 18 18 20 20 19 18 17 16
18 19 23 32 36 34 31 30 28 26 24 23 22 21 20 19 20 19 20 20 18 17 18 16 15 16 15 15 15 15 13 13 13 12 12 12 14 14 12 12 12 12 12 12 11 9 8 8 9 8 8 8 9 10 9 8 8 8 8 8 8 9 9 10 10 9 9 9 9 9 11 12 14 16 15 14 13 15 17 21 22 21 21 23 23
16 21 27 34 35 33 30 28 26 24 22 21 21 21 19 19 21 21 20 20 19 20 19 17 16 16 15 15 15 14 13 14 13 12 12 13 14 13 12 12 12 11 10 10 10 10 9 7 7 7 7 7 7 8 9 8 8 8 8 9 9 10 9 9 10 9 9 10 10 9 11 13 14 15 16 18 19 19 20 20 20 21 22 22 22
18 23 28 32 32 31 30 29 29 28 25 23 22 23 22 22 23 22 20 20 21 20 18 16 17 16 14 14 14 13 14 15 14 14 14 14 14 13 13 14 13 12 11 10 9 9 8 7 7 7 7 7 7 8 9 9 9 9 9 10 11 12 11 10 10 9 10 11 11 10 11 12 12 13 15 17 21 23 24 23 23 24 24 23 21
20 24 27 29 31 30 30 31 31 30 27 25 26 27 26 25 26 23 20 20 21 19 17 17 17 14 13 14 14 12 13 14 14 14 14 14 14 14 14 13 13 13 12 11 9 8 7 7 7 6 6 7 6 6 8 10 10 10 10 10 11 12 13 12 12 12 12 12 12 12 12 12 14 15 16 17 18 20 21 22 24 27 28 28 27
18 22 25 28 29 29 30 30 29 28 28 28 28 29 28 27 27 25 22 21 20 18 16 16 16 14 13 13 12 11 12 13 14 15 15 14 14 14 13 11 12 11 10 9 8 6 6 6 5 5 5 6 5 4 5 6 7 7 8 8 10 11 11 12 12 13 13 14 15 15 15 16 17 18 19 19 18 18 19 19 20 22 23 24 26
15 18 22 26 27 27 27 28 29 28 29 29 30 30 29 28 27 26 24 22 20 18 16 15 14 13 11 10 10 10 11 12 14 15 15 14 13 14 11 8 8 9 7 6 5 4 4 5 5 5 6 6 4 5 7 8 8 10 10 10 11 11 11 12 13 14 15 16 17 18 18 18 19 20 21 21 21 22 20 18 19 20 22 23 24
16 17 20 23 26 28 27 27 28 28 27 30 31 30 28 27 25 24 23 22 20 19 17 15 14 12 11 11 11 11 10 11 12 14 14 14 14 14 10 4 2 3 4 5 6 6 7 8 8 8 8 7 6 7 10 10 11 13 13 12 13 13 13 14 15 16 17 18 19 19 20 20 20 21 21 22 23 24 23 22 22 22 24 27 28
16 15 16 18 23 29 30 29 28 27 26 27 29 28 26 24 22 22 22 21 20 19 18 16 13 12 11 11 10 10 9 9 10 11 12 13 12 12 10 6 5 7 7 7 8 9 9 9 10 10 10 9 8 9 11 11 13 14 14 15 16 17 17 17 17 18 19 19 20 20 20 21 20 20 20 20 22 24 25 26 25 23 24 27 28
17 15 14 12 14 20 24 26 27 27 25 23 24 24 22 20 19 20 21 19 18 17 17 15 13 11 10 8 7 6 5 6 7 8 8 8 7 8 9 9 9 10 10 8 8 9 9 10 10 10 8 8 9 10 11 12 14 15 16 17 17 17 17 16 15 16 16 16 16 16 17 17 17 17 17 18 19 21 23 23 23 22 23 24 25
20 18 16 13 11 10 13 17 20 23 24 24 24 23 20 18 20 21 20 18 17 17 16 15 14 12 10 8 7 7 6 5 5 5 5 6 7 8 9 10 10 9 8 8 8 9 10 10 9 8 7 7 8 8 9 11 11 12 12 13 13 13 12 11 12 12 13 12 12 13 13 14 15 15 14 15 16 18 20 20 21 21 21 21 22
21 22 20 18 15 13 11 13 15 17 19 20 21 20 19 20 20 20 18 16 14 13 12 12 13 12 11 9 9 10 9 8 7 8 9 9 9 9 9 10 11 10 10 9 9 9 9 8 7 7 6 7 7 6 7 7 8 8 9 9 10 10 10 10 11 12 12 13 13 14 14 14 14 14 15 15 16 16 18 19 20 19 18 18 18
22 24 24 22 22 21 19 19 18 17 16 16 16 16 16 16 16 16 15 12 10 9 8 9 9 9 8 7 6 6 6 7 8 9 10 10 10 9 9 9 9 10 9 9 9 9 8 8 6 6 5 5 5 5 7 8 9 10 10 10 11 12 13 13 14 15 16 16 16 16 16 16 15 15 16 17 16 16 18 20 21 20 19 18 17
20 23 24 25 25 25 25 24 25 24 21 19 18 17 16 14 13 13 13 12 12 11 11 9 8 8 8 7 6 6 6 7 8 9 8 8 8 8 8 8 9 9 8 8 8 8 8 7 6 5 6 6 7 9 10 11 11 11 10 10 11 12 13 13 13 13 13 14 15 15 15 15 15 16 17 17 17 18 19 21 22 22 21 19 18
17 18 20 21 23 24 24 24 25 25 24 23 23 23 21 18 17 16 15 15 15 14 13 11 10 9 8 8 8 8 7 6 6 6 6 6 6 6 6 7 8 9 8 8 8 7 6 6 6 7 8 8 9 9 8 8 7 6 6 6 6 7 7 6 6 6 7 9 10 11 12 13 14 14 15 16 17 18 18 18 19 20 21 21 21
15 15 15 17 19 20 21 21 21 21 21 21 21 20 19 18 17 17 16 15 14 13 13 11 10 8 7 7 8 7 6 4 3 2 2 2 2 3 4 5 5 7 7 7 7 6 6 7 7 7 7 6 5 4 3 2 2 2 1 2 3 3 3 3 3 5 6 7 8 8 9 9 10 12 13 14 15 16 17 16 16 17 20 22 23
14 14 14 14 14 14 15 16 16 17 17 17 18 18 16 15 15 14 14 14 12 11 11 9 9 8 6 6 6 6 5 3 2 1 1 1 1 2 3 4 5 6 7 7 6 5 5 6 4 3 2 4 6 6 5 5 4 3 3 3 2 2 4 5 6 7 7 8 9 10 10 10 10 12 14 15 16 17 17 17 16 15 16 16 16
15 15 15 15 13 12 11 11 11 12 12 13 14 15 15 15 15 14 14 15 13 12 11 11 10 8 6 5 4 3 2 1 2 2 2 3 4 5 5 5 4 4 4 4 3 2 1 1 4 7 8 9 9 7 6 5 3 3 2 2 2 4 5 6 7 8 8 9 10 11 12 13 13 14 15 15 15 15 15 16 15 13 12 11 13
16 16 15 15 13 11 10 10 8 7 8 8 9 11 12 13 14 14 15 15 15 14 12 12 11 10 8 5 3 2 3 3 4 4 6 7 7 6 4 3 2 2 3 4 5 7 10 11 11 11 10 9 8 7 6 4 2 1 2 3 4 6 6 7 8 8 9 10 11 13 14 14 15 15 15 16 15 14 14 14 13 12 12 14 15
16 16 15 14 12 10 9 9 7 5 4 4 5 6 8 9 11 12 13 14 14 14 13 12 11 10 8 5 4 4 5 5 5 6 7 7 5 4 3 5 7 9 10 12 14 15 15 14 12 10 9 9 8 7 5 3 1 2 3 4 5 7 8 9 10 10 11 13 13 14 14 14 14 14 13 12 12 11 11 11 11 12 14 15 14
15 15 15 14 13 11 9 8 8 7 5 4 3 4 7 9 10 11 12 12 12 12 12 12 11 10 9 7 7 7 7 7 7 7 5 3 3 5 7 10 12 14 15 16 16 16 15 13 11 9 7 6 5 3 1 1 3 4 5 5 5 7 9 11 11 11 12 13 13 12 12 12 12 11 10 9 8 9 9 10 11 12 12 11 11
16 14 13 13 12 11 10 10 10 9 9 8 7 6 6 7 8 8 9 10 11 11 11 12 11 10 9 8 8 8 8 6 4 2 3 7 10 11 13 14 14 14 13 13 13 13 12 11 10 7 4 2 1 2 3 4 4 5 5 6 6 8 9 11 12 13 13 13 13 13 12 10 8 7 7 7 7 7 7 8 8 9 9 8 8
13 13 12 12 11 10 10 10 10 9 9 10 10 10 9 8 7 7 7 7 8 8 9 10 9 8 8 7 5 5 4 3 5 7 10 12 14 15 15 14 13 13 11 10 10 10 10 9 8 6 3 1 1 3 3 4 5 4 5 6 7 8 10 11 13 14 14 14 15 15 13 10 8 7 7 7 6 6 6 7 7 8 9 9 10
9 9 10 11 10 10 9 9 9 8 7 7 8 11 12 12 11 10 9 8 7 7 7 7 6 6 6 7 7 8 10 12 14 15 15 16 16 16 15 13 11 10 8 7 6 5 5 4 4 2 1 2 3 4 5 5 5 5 6 7 7 8 9 10 11 12 12 13 15 14 12 11 11 11 11 10 8 7 6 6 7 8 8 9 9
9 7 9 10 10 10 9 8 8 8 8 6 5 7 11 13 14 14 12 11 11 11 10 10 10 10 11 12 13 15 17 18 18 18 19 18 17 16 14 11 9 7 6 5 3 2 1 1 1 2 4 4 5 7 7 7 7 8 9 8 7 8 9 9 8 8 9 11 13 13 12 12 13 12 12 11 11 10 9 9 9 9 8 7 7
9 7 7 8 8 8 8 9 9 9 9 7 4 5 9 12 13 14 15 15 14 14 13 13 13 14 15 17 19 20 20 18 16 16 17 17 16 14 13 11 10 7 4 3 4 5 5 5 4 5 6 6 5 4 4 4 5 6 6 7 7 7 7 7 6 6 8 10 11 12 12 11 11 10 10 11 11 12 13 13 13 12 10 9 9
7 5 3 2 3 5 6 8 10 9 8 8 8 7 7 9 10 10 12 14 15 14 15 15 16 17 18 20 20 19 17 15 14 13 13 13 14 13 11 10 8 6 4 5 8 9 10 11 11 11 11 12 12 12 11 10 8 8 9 11 12 10 9 7 6 6 7 8 9 9 10 10 10 9 10 11 12 13 13 12 11 11 13 13 12
8 6 5 5 6 6 6 8 8 7 5 7 10 8 6 6 7 6 7 9 12 14 15 15 16 17 19 19 18 16 14 12 12 12 12 12 11 10 9 7 6 4 4 6 9 10 11 13 14 15 15 15 15 14 14 13 12 12 11 11 11 10 10 8 6 5 6 7 7 7 8 9 9 9 10 10 10 10 9 9 9 11 14 14 13
13 9 3 2 6 8 6 8 8 8 7 8 9 8 7 6 5 5 6 6 8 11 14 15 17 18 19 19 17 14 12 11 11 11 11 10 8 7 7 6 5 4 6 8 10 11 13 14 14 15 15 15 14 13 11 11 11 10 10 9 9 8 8 7 5 5 6 6 6 7 7 8 8 8 8 7 8 9 9 10 10 11 11 11 10
15 11 4 3 5 8 6 8 8 10 10 9 9 10 10 8 6 6 6 6 6 10 14 15 15 16 16 15 13 11 10 9 8 8 8 8 8 8 8 8 7 7 9 11 11 11 12 13 13 13 14 13 13 12 11 9 8 7 7 8 7 7 7 8 7 7 8 8 7 7 7 7 7 7 8 9 10 10 9 10 10 10 9 9 8
13 13 7 4 7 10 7 6 8 9 10 9 9 10 9 7 6 5 6 6 7 8 10 10 10 11 11 9 8 7 6 5 4 5 7 9 10 10 9 8 7 7 9 10 10 10 10 11 11 12 12 11 11 11 11 9 8 7 7 7 7 7 8 9 9 8 8 8 8 8 7 7 7 8 9 9 9 8 7 8 9 9 9 8 7
9 13 10 6 6 9 11 8 5 7 7 8 9 8 7 6 6 7 8 8 10 9 7 6 8 10 9 6 6 5 4 3 4 7 11 12 12 10 9 8 6 4 6 8 10 9 9 9 10 10 10 11 11 12 11 10 9 9 8 8 8 7 7 7 8 8 8 9 9 9 8 8 6 6 7 8 8 8 7 7 7 7 7 7 6
7 9 9 6 3 5 10 11 7 3 6 7 7 7 7 6 7 7 8 7 8 6 4 5 8 10 9 7 5 3 2 5 8 12 13 12 11 9 8 6 5 5 5 7 8 8 8 9 9 9 10 11 11 12 12 11 10 9 9 8 7 6 5 5 5 5 5 6 7 7 8 7 6 6 7 7 7 7 7 7 7 7 6 6 6
5 7 8 5 3 3 8 11 11 8 3 4 6 7 6 6 6 6 5 4 3 3 2 5 11 13 10 7 4 3 4 7 9 10 10 10 9 8 7 6 6 6 6 6 7 8 8 8 9 9 9 10 10 11 12 12 12 11 10 9 7 6 5 5 5 5 4 3 4 5 6 6 5 6 7 8 9 9 8 8 8 7 6 7 7
3 3 6 4 2 4 8 10 12 13 10 3 5 9 8 6 7 5 3 2 1 2 1 8 15 15 11 8 6 6 7 8 7 6 6 5 6 6 7 7 6 5 5 6 7 7 7 7 8 8 8 9 10 12 12 12 12 12 11 10 9 8 7 8 8 7 5 3 3 4 4 4 5 6 7 9 10 9 8 9 9 7 6 7 8
2 1 5 6 4 4 5 9 10 12 13 6 8 11 6 4 6 7 4 3 2 2 4 11 16 13 9 8 8 8 8 8 6 4 2 2 3 4 5 5 4 3 4 5 6 6 6 6 6 7 8 9 11 12 11 10 11 11 10 10 9 9 8 8 8 7 5 2 1 2 3 3 4 5 6 8 9 8 8 10 10 8 6 6 6
2 0 4 4 2 3 3 6 8 10 12 8 7 7 2 2 5 8 6 4 4 4 7 11 13 10 7 7 7 9 10 8 6 4 3 2 2 2 3 3 3 2 3 5 5 5 5 5 6 6 8 9 10 10 9 9 9 9 9 8 8 8 8 8 8 8 6 3 1 3 4 4 4 4 6 8 8 8 9 10 9 7 6 6 5
2 1 1 2 2 3 4 5 7 7 7 6 6 4 2 2 5 6 4 4 5 6 6 7 7 7 7 7 6 6 7 6 5 5 4 3 3 2 1 1 2 2 3 4 4 4 4 4 5 6 7 8 9 9 9 8 8 8 7 7 7 7 7 7 8 8 7 4 2 4 5 5 5 5 7 8 8 7 8 8 8 7 6 5 5
5 3 1 1 1 4 6 7 7 7 4 2 4 4 2 2 3 4 5 6 7 7 7 8 7 7 7 7 6 5 5 5 7 8 8 8 6 4 2 1 1 2 3 3 3 3 3 4 4 5 6 7 7 7 8 8 7 7 7 7 6 6 6 6 6 6 6 5 4 4 6 8 8 8 9 10 9 7 6 6 6 6 4 4 4
8 6 3 3 4 5 7 8 7 4 2 1 1 0 1 1 1 3 5 8 10 10 10 10 10 10 9 8 7 8 7 6 8 9 8 5 2 2 3 2 0 0 1 1 1 2 2 3 4 4 5 6 7 7 7 8 8 7 7 7 6 6 5 6 6 5 5 5 5 5 6 7 9 9 10 10 9 8 7 7 7 6 5 4 4
9 8 3 3 5 5 5 6 6 5 3 2 2 3 4 3 1 0 3 8 10 10 10 11 13 12 9 6 6 6 6 5 6 6 5 2 2 5 6 5 2 1 1 1 1 1 2 3 3 3 4 5 6 6 7 8 8 8 8 7 7 6 6 5 5 5 5 6 6 6 6 7 7 8 8 8 9 9 10 9 8 7 6 6 5
8 7 4 5 7 7 5 6 7 7 6 6 5 4 4 4 3 2 2 5 7 7 6 8 12 12 9 5 5 6 6 6 7 7 7 7 7 6 6 6 5 3 1 1 2 1 1 2 2 2 3 4 5 5 6 7 8 9 9 9 8 8 7 6 6 6 6 6 6 6 7 8 8 9 10 11 11 12 13 12 12 11 9 8 6
6 6 7 8 9 9 6 5 6 6 6 7 7 6 5 4 4 4 5 5 6 7 7 6 9 11 9 6 6 7 8 9 10 10 10 10 8 5 4 5 6 5 3 2 2 2 1 1 1 1 2 3 4 5 6 7 8 9 9 9 9 9 8 7 7 7 7 7 7 8 9 10 10 11 11 12 12 12 12 11 11 10 9 9 8
Wind_Direction
230 235 225 212 203 202 208 206 194 189 188 179 173 173 176 180 180 175 169 166 164 162 161 166 174 172 164 162 156 151 154 156 150 146 146 146 147 149 153 151 152 160 158 152 160 170 167 165 167 167 167 166 160 154 154 156 158 162 169 175 181 186 188 189 184 183 193 211 225 226 222 222 214 211 217 222 219 209 198 198 203 207 205 197 190
223 234 225 211 202 202 203 194 187 189 186 177 175 177 181 182 179 175 172 168 163 158 157 164 171 155 145 152 150 150 157 151 137 134 132 126 126 133 141 143 150 160 156 150 153 158 163 164 162 160 159 153 145 141 143 146 152 168 184 187 188 190 192 194 192 191 195 204 217 225 223 228 225 207 208 229 227 220 215 210 208 210 211 208 205
216 223 222 214 204 197 191 185 186 188 182 178 180 181 181 181 180 179 176 165 152 148 148 151 151 137 134 143 145 146 147 138 133 136 130 121 123 133 146 160 166 162 161 156 148 154 163 162 157 156 153 148 144 142 144 147 153 168 180 182 184 189 195 199 199 201 202 201 208 217 222 241 254 224 232 281 256 243 240 229 219 216 216 217 216
211 211 211 209 203 191 183 181 184 185 182 181 183 183 182 184 186 183 174 156 146 149 153 149 145 137 131 137 142 142 138 135 141 143 129 126 137 139 153 172 168 159 161 157 147 155 163 157 150 150 151 152 151 150 150 157 170 178 171 167 175 187 195 201 204 208 211 207 207 213 225 250 262 243 247 263 264 268 267 249 231 225 225 227 229
207 206 203 200 196 191 186 183 183 184 183 183 184 184 184 188 190 182 164 149 146 156 158 149 148 147 141 140 142 144 142 141 146 142 132 132 134 119 123 152 158 154 153 150 149 158 159 150 143 143 146 151 152 151 152 157 170 172 160 149 150 171 188 198 205 213 223 219 210 210 223 242 244 239 242 249 257 262 265 261 244 233 232 235 240
209 204 200 197 194 191 186 183 182 182 182 183 186 184 180 184 184 171 156 149 151 159 154 150 154 152 144 140 142 148 148 144 144 142 139 135 125 113 108 129 147 150 149 147 149 156 156 147 144 143 143 149 155 157 151 139 145 156 160 152 143 159 176 189 203 212 223 224 211 209 214 224 231 236 240 244 252 259 261 260 252 244 242 243 246
209 202 198 195 189 185 181 181 183 181 179 182 183 179 176 177 173 164 159 156 154 152 151 154 157 150 143 144 149 155 151 146 145 144 142 136 127 123 112 109 120 129 138 144 145 153 156 151 150 150 150 161 169 169 159 150 148 153 165 169 159 164 177 182 186 200 212 216 214 214 216 223 231 238 245 246 248 255 260 259 257 258 257 256 256
209 206 197 188 180 178 177 177 179 178 176 177 177 172 170 167 161 160 162 160 151 147 151 155 152 151 154 155 155 155 152 150 147 143 146 144 136 131 125 119 116 112 118 127 131 138 147 154 160 163 164 172 178 179 172 167 167 165 167 174 171 170 185 189 184 189 199 199 208 218 224 227 227 234 244 243 237 243 252 256 261 267 269 268 268
204 205 194 181 174 175 176 175 174 173 171 172 172 168 165 163 161 158 156 153 148 146 152 155 156 161 163 158 155 155 156 155 151 147 150 152 146 142 138 134 128 122 124 128 130 131 138 153 167 173 173 178 185 191 191 185 182 181 179 180 181 182 186 188 192 204 215 211 212 221 225 224 221 225 235 242 243 248 251 252 258 267 270 269 268
193 196 186 174 171 173 174 173 173 173 170 169 171 170 167 164 160 153 149 149 149 149 154 161 166 168 165 159 157 159 159 155 152 151 150 148 148 147 145 141 136 133 134 134 134 137 137 145 160 170 177 182 189 198 201 199 200 200 196 193 197 200 199 198 205 219 231 234 234 235 234 233 233 231 231 236 246 252 248 244 247 253 256 259 262
184 185 177 169 169 172 171 169 172 175 173 170 169 166 160 155 152 149 150 152 153 153 157 164 167 168 167 162 158 158 159 154 151 150 146 143 145 144 143 144 140 135 136 132 126 130 133 134 142 159 174 179 186 194 198 203 211 211 211 211 214 218 218 221 228 237 244 244 246 250 247 246 249 248 242 238 240 245 245 240 240 243 246 251 260
168 173 171 167 169 173 171 169 173 173 166 161 160 157 154 151 151 152 154 156 155 155 157 160 162 165 166 163 160 157 155 155 153 151 149 148 148 144 142 143 141 137 143 145 138 138 147 154 156 166 180 184 189 199 206 215 221 222 222 220 221 226 228 232 240 249 254 253 253 257 254 250 252 254 253 249 246 249 251 248 246 248 248 249 253
155 164 171 172 172 174 172 171 170 165 157 155 159 160 158 155 153 155 158 159 159 157 156 156 157 160 161 163 165 159 154 158 158 156 157 156 153 151 150 151 147 140 144 156 164 168 171 175 180 190 200 201 197 204 218 226 229 233 234 231 232 237 240 244 252 257 257 256 255 259 261 262 262 261 262 262 259 257 256 253 253 254 255 255 255
153 163 172 174 171 171 172 170 166 160 157 158 160 160 158 157 157 159 161 163 163 159 156 156 156 155 155 161 168 167 164 166 165 163 165 163 158 155 154 158 158 150 145 152 165 179 183 188 202 215 222 220 209 209 230 239 246 254 254 247 246 249 253 259 264 264 262 262 263 267 270 271 270 269 268 266 265 262 257 253 253 256 258 259 257
153 164 169 170 170 173 175 171 167 165 163 162 160 160 160 159 158 159 159 161 163 159 154 153 152 151 150 152 162 167 168 171 172 170 170 169 166 161 155 156 166 169 172 172 178 200 215 225 239 246 250 252 260 267 258 252 257 264 266 264 260 262 271 278 276 271 270 271 272 274 274 273 273 272 271 269 266 263 262 261 261 264 266 267 264
128 146 157 160 164 171 176 174 169 167 166 163 159 158 160 158 156 158 159 159 160 157 151 148 146 146 144 139 140 145 148 158 169 174 174 176 178 177 176 182 192 199 220 225 231 246 253 256 260 266 270 266 262 260 255 254 260 262 261 261 259 264 275 280 279 276 274 272 271 271 271 272 273 274 275 274 270 270 273 274 273 273 274 276 275
104 118 132 141 149 160 169 173 171 168 164 160 157 158 163 164 162 165 167 165 163 162 159 157 152 149 147 143 140 140 140 146 159 171 175 176 181 189 202 228 271 295 290 271 259 260 260 260 264 271 272 259 247 248 251 258 266 266 264 263 264 268 274 277 277 277 276 273 271 270 270 271 272 273 275 276 276 276 278 279 280 278 276 276 277
102 108 112 117 130 145 157 164 168 168 165 160 157 158 163 166 166 169 173 171 168 168 169 171 170 170 172 171 169 170 168 163 168 177 180 183 199 224 239 248 267 281 277 264 264 266 261 258 262 266 261 247 241 246 252 260 266 268 271 273 275 277 278 275 272 271 272 273 272 272 274 274 273 273 274 275 276 277 280 285 290 288 281 277 277
96 103 107 108 110 122 139 149 154 159 160 160 159 157 163 170 169 170 173 171 170 174 180 187 193 203 214 224 235 243 244 238 225 219 220 228 242 253 258 262 267 266 260 259 265 265 258 251 251 251 246 242 247 252 257 262 265 268 273 276 278 281 280 278 275 272 275 280 282 283 286 286 283 282 280 279 281 285 290 295 298 299 296 290 285
85 94 101 104 104 105 113 124 133 141 149 156 159 160 166 171 171 171 173 173 175 181 190 200 208 219 232 242 248 252 253 251 244 242 243 244 243 243 245 255 260 258 256 257 253 249 246 240 236 238 238 241 248 253 260 266 272 278 281 282 283 283 284 286 286 286 286 287 289 291 293 294 294 293 292 290 291 295 299 300 301 302 302 300 295
88 94 99 101 103 105 105 107 112 120 131 145 155 157 157 161 165 169 170 168 165 161 163 176 187 194 203 212 219 226 228 224 221 223 228 229 228 229 233 239 245 245 241 235 231 231 230 226 226 233 238 244 254 266 280 290 296 297 297 298 298 295 292 290 290 291 291 290 291 292 292 291 291 291 290 291 292 295 296 296 297 296 293 293 292
95 97 99 101 105 108 109 109 110 110 110 114 120 122 124 128 134 141 145 143 138 134 132 134 138 143 148 149 149 158 172 187 194 196 199 204 207 214 218 216 216 220 220 220 222 227 229 231 241 253 264 276 284 291 299 304 307 310 311 309 307 304 303 303 303 302 298 294 289 286 284 282 281 283 286 289 291 293 293 291 291 290 289 288 284
97 99 98 101 107 111 113 113 114 114 113 112 111 110 110 110 108 108 111 113 114 112 109 105 108 120 130 133 135 145 156 168 177 177 177 183 194 204 211 211 213 220 224 226 230 238 250 264 274 281 288 296 303 308 312 314 316 323 327 329 331 331 329 328 324 310 294 284 280 276 271 269 271 277 285 288 288 288 290 290 287 285 287 288 286
89 94 96 101 107 112 114 113 114 116 117 117 117 115 113 112 109 106 104 104 102 98 92 88 91 102 121 140 150 157 165 165 152 143 164 184 196 212 224 228 234 242 248 252 256 261 269 278 286 295 304 317 339 359 17 43 58 57 42 38 37 15 351 341 327 307 296 296 300 299 293 288 289 293 297 298 296 295 297 299 295 289 288 288 288
81 83 86 90 94 101 109 115 118 120 121 122 122 120 117 115 114 114 115 116 113 107 105 105 103 108 127 151 156 163 173 158 100 84 162 210 259 275 266 258 255 255 258 262 264 267 273 282 292 318 24 73 84 92 102 110 113 115 107 95 85 25 357 357 349 335 328 326 325 322 318 316 315 314 314 313 311 309 310 311 307 302 297 293 294
70 72 73 75 78 83 93 104 113 122 129 134 134 133 133 133 131 132 131 130 127 124 129 139 143 147 163 172 163 178 209 308 6 352 329 327 324 313 300 284 266 256 252 253 258 260 237 118 105 103 102 104 108 115 119 120 123 121 100 61 12 355 356 356 346 337 332 329 326 324 325 324 322 320 321 322 321 322 322 319 313 309 308 310 315
55 58 61 62 62 64 68 73 85 108 126 135 141 144 148 150 152 152 149 145 142 139 141 153 159 161 165 165 168 219 267 297 310 310 318 327 332 335 335 346 28 73 96 100 102 109 113 113 113 115 118 122 127 130 127 125 122 29 334 317 317 325 335 337 330 326 325 324 321 321 323 325 326 324 322 322 325 327 326 318 312 310 314 317 318
49 48 50 51 50 50 51 51 54 68 92 116 143 157 163 167 169 170 168 164 162 160 160 166 170 170 173 184 207 243 269 286 300 310 317 324 337 3 42 68 83 94 101 106 112 117 120 120 123 129 135 139 141 136 128 117 54 346 324 311 308 311 315 317 314 312 316 319 317 315 314 316 321 325 325 321 318 316 314 311 311 316 318 314 310
52 49 50 51 50 48 46 48 51 54 60 71 107 146 163 171 175 181 184 182 180 180 181 184 186 187 193 207 227 246 263 279 296 310 325 3 63 82 91 97 103 109 115 119 125 129 131 131 133 137 141 145 148 146 136 340 339 329 314 308 309 308 307 310 315 322 328 329 329 328 325 322 322 324 326 324 315 307 304 307 312 315 313 305 299
60 57 56 58 59 54 48 51 56 58 61 67 75 92 120 145 159 170 181 188 192 194 197 202 207 210 216 227 240 249 258 268 282 315 60 89 98 102 103 107 110 114 120 130 136 137 137 137 136 137 140 153 211 288 305 313 324 324 310 305 318 330 331 334 344 353 352 350 354 355 351 345 339 337 342 345 341 330 320 315 313 307 299 291 291
73 71 68 69 71 64 53 52 57 59 59 62 67 74 83 100 123 137 147 163 178 188 195 200 206 212 214 215 216 214 206 167 114 104 103 106 110 111 108 109 111 112 119 134 142 137 133 134 133 129 123 123 304 309 312 312 315 314 304 303 317 336 347 353 358 360 359 2 8 8 6 5 7 13 18 14 357 339 327 320 311 300 292 290 293
80 83 86 85 82 78 70 61 55 50 48 56 69 74 75 79 88 101 113 123 131 141 151 155 155 154 152 145 135 130 123 112 104 105 109 113 115 112 106 105 110 116 126 142 144 130 126 138 145 148 197 293 306 310 309 308 310 311 308 305 309 328 346 357 358 355 359 8 13 16 23 31 35 38 37 29 17 3 348 334 325 318 312 307 304
70 85 106 107 99 93 89 80 68 54 45 47 69 75 73 74 74 78 89 99 102 105 110 115 117 117 117 120 120 116 111 109 109 110 111 112 113 112 110 112 116 124 142 158 146 81 22 296 291 319 323 318 313 307 300 296 295 295 299 303 306 318 337 350 353 355 8 15 15 19 28 34 37 40 38 31 24 16 8 360 353 347 342 336 334
68 79 107 116 109 102 97 94 93 81 55 46 66 82 77 77 75 73 78 85 88 92 95 99 106 111 112 115 116 114 113 114 116 115 114 116 119 121 123 126 124 121 123 109 70 58 56 62 65 53 39 32 22 1 338 320 307 305 325 352 1 359 360 3 3 12 23 21 14 15 17 19 23 26 23 18 15 9 4 1 1 1 5 9 9
55 54 45 49 75 103 117 110 99 86 66 74 98 99 79 79 84 83 79 76 75 82 91 98 103 109 113 116 119 119 118 117 116 114 117 123 129 132 133 130 122 111 85 52 52 65 77 81 80 73 60 53 49 43 37 35 31 30 35 39 35 30 31 36 36 32 28 18 9 5 4 6 10 10 5 2 1 359 360 3 12 24 30 28 24
37 25 357 360 30 62 118 136 117 91 74 90 102 101 86 86 96 98 89 77 73 80 91 99 102 105 110 115 120 124 126 125 121 119 122 129 139 147 148 136 118 98 64 50 57 69 77 77 73 66 58 52 48 43 39 40 42 43 45 46 42 38 40 45 40 25 13 6 2 357 354 357 359 355 352 354 356 2 18 36 47 48 42 32 24
35 31 30 51 45 53 102 133 113 85 80 87 90 97 114 121 101 87 97 102 90 87 92 98 102 106 111 116 121 127 132 136 134 129 126 129 139 146 141 128 119 102 78 71 71 70 68 65 62 58 53 49 46 44 42 43 47 48 47 46 45 43 45 48 44 29 20 16 14 9 3 2 4 3 5 19 31 40 56 62 54 45 40 31 21
38 45 83 113 45 43 91 127 108 85 87 94 90 94 113 127 116 98 113 128 113 100 103 105 104 107 112 118 123 126 128 131 137 138 134 128 123 119 114 108 104 94 84 82 80 72 65 60 55 51 49 45 42 41 41 43 49 53 49 46 47 48 49 51 47 38 31 24 21 20 18 20 30 41 52 57 54 52 59 59 45 35 32 25 16
39 50 70 80 42 37 55 109 116 98 93 100 105 102 103 109 107 102 121 147 148 134 128 121 113 113 117 121 126 130 126 116 120 138 142 136 129 124 120 115 105 87 77 80 84 77 66 59 53 47 46 44 41 40 42 45 50 51 47 49 57 57 49 43 36 34 36 36 34 35 33 32 47 64 66 55 45 43 45 39 30 25 24 19 15
41 51 57 65 56 39 30 36 86 115 109 106 115 116 103 94 92 89 98 125 146 152 150 139 126 126 130 131 132 131 120 98 115 133 136 135 134 134 135 133 127 102 74 74 78 74 64 57 53 47 43 43 46 48 48 49 51 52 50 54 60 60 56 51 45 42 46 50 50 48 42 33 36 53 51 33 25 32 32 13 1 5 13 10 6
32 39 43 52 63 28 13 15 30 107 141 136 131 123 106 100 108 100 91 105 125 131 136 150 148 145 146 148 148 139 97 93 117 131 136 137 141 145 145 136 122 103 83 72 68 63 55 53 53 49 44 43 47 51 53 53 52 51 52 54 54 51 52 56 54 47 48 54 55 52 47 40 29 27 26 14 3 6 8 354 342 345 353 353 349
41 24 26 48 70 357 356 10 25 40 72 152 158 140 116 112 124 115 90 82 81 49 52 155 154 148 141 134 124 109 96 101 113 127 138 144 144 136 126 116 105 94 83 70 61 58 54 50 48 49 48 45 44 46 50 50 48 46 48 49 46 37 23 20 22 22 27 51 55 47 49 52 37 18 11 2 349 340 334 331 332 338 349 355 351
91 25 3 4 325 326 1 25 36 29 15 356 172 153 135 133 143 138 114 101 84 8 21 158 153 146 137 133 132 130 129 130 132 135 140 147 143 120 103 102 104 92 76 66 61 58 55 50 47 46 45 43 42 44 46 44 41 40 42 44 45 39 25 15 16 19 22 37 48 32 26 34 28 10 355 349 347 342 334 333 335 338 343 345 344
151 65 3 351 291 277 6 33 34 25 20 35 158 160 146 137 159 167 175 174 145 87 121 150 151 143 135 142 155 160 158 158 163 170 175 163 149 129 109 104 103 80 65 69 68 61 56 54 50 43 35 34 41 46 45 38 34 33 33 34 35 34 26 18 17 22 27 36 30 343 338 351 4 355 340 339 341 339 336 339 343 348 353 349 347
164 234 13 12 300 260 343 11 11 18 30 57 131 153 125 81 146 160 168 173 160 133 131 143 145 138 139 156 169 174 177 185 203 228 236 206 136 124 121 123 124 96 75 76 71 65 64 60 53 42 31 29 35 40 37 31 28 27 27 26 27 26 23 21 19 20 24 22 276 276 299 321 336 335 334 340 341 332 327 331 337 346 359 6 9
178 216 25 36 335 302 306 328 349 7 27 55 91 108 99 126 147 154 166 181 182 176 168 162 154 151 163 176 178 176 186 210 241 254 261 278 296 296 270 144 135 124 105 89 73 66 69 68 56 42 31 27 29 30 28 24 22 21 19 20 20 16 15 15 14 14 17 15 316 268 276 290 304 315 324 333 336 328 322 329 337 341 346 357 6
200 196 176 168 312 300 284 296 329 352 2 48 75 79 93 149 181 202 205 192 187 190 186 176 173 179 186 191 196 198 207 231 248 251 258 271 282 283 277 227 138 124 114 101 81 66 66 67 57 40 30 27 27 25 22 20 19 18 15 15 13 10 5 1 359 1 3 360 346 317 293 288 293 302 310 317 321 318 317 332 343 341 334 337 350
210 206 214 247 279 289 286 290 307 327 324 307 328 122 164 143 292 257 224 202 199 203 197 185 186 196 205 213 222 225 225 236 246 246 242 241 263 317 319 309 295 121 115 90 70 54 50 53 49 35 27 26 26 23 21 19 18 16 14 9 4 358 354 348 344 344 343 340 338 334 321 310 306 305 306 310 315 317 320 330 335 333 331 329 327
217 207 225 271 263 265 287 298 296 293 285 264 242 232 223 216 231 271 190 184 189 203 212 208 203 199 198 209 226 226 222 231 243 246 240 240 316 325 312 299 294 296 270 270 300 351 21 39 38 26 22 25 25 21 19 17 14 12 9 4 357 351 346 341 336 330 325 323 324 323 320 319 318 312 309 312 313 309 309 312 309 308 317 320 304
217 218 267 281 248 240 264 295 295 286 265 234 218 218 220 224 244 275 226 194 192 198 209 214 209 205 207 222 225 216 220 240 255 266 275 281 292 302 295 283 283 286 270 246 247 267 334 16 25 23 20 21 21 19 15 12 8 3 357 351 346 340 332 327 325 321 317 319 322 320 314 314 315 311 308 309 307 303 303 302 295 289 293 292 277
220 244 274 268 247 243 260 286 298 296 279 257 248 239 216 207 235 262 264 256 234 213 206 212 211 207 211 231 238 230 238 253 261 265 269 272 279 291 285 270 269 271 273 267 240 227 250 320 11 31 20 13 13 12 7 2 358 355 353 352 351 346 340 331 321 314 312 315 317 315 311 312 315 315 312 313 312 309 308 306 298 289 283 272 257
Height
1499 1501 1503 1505 1507 1508 1510 1514 1517 1519 1520 1521 1523 1525 1526 1526 1527 1528 1529 1531 1532 1533 1534 1535 1536 1537 1538 1540 1542 1544 1545 1546 1548 1549 1549 1550 1551 1552 1552 1553 1554 1555 1556 1558 1558 1558 1559 1559 1560 1561 1563 1564 1566 1567 1568 1569 1570 1570 1571 1572 1573 1574 1575 1576 1576 1576 1577 1579 1580 1581 1582 1583 1584 1584 1585 1585 1585 1586 1586 1586 1587 1587 1588 1588 1588
1499 1500 1501 1503 1505 1505 1507 1512 1516 1518 1519 1521 1522 1524 1525 1526 1527 1527 1528 1530 1531 1532 1533 1534 1536 1537 1539 1540 1542 1544 1546 1547 1548 1549 1549 1551 1551 1552 1553 1553 1554 1555 1556 1557 1558 1558 1559 1559 1560 1561 1563 1564 1566 1567 1568 1569 1570 1570 1571 1572 1573 1574 1575 1575 1576 1577 1577 1579 1580 1581 1581 1582 1583 1584 1584 1585 1585 1586 1586 1586 1586 1587 1588 1588 1588
1497 1498 1500 1502 1504 1505 1506 1510 1515 1517 1518 1520 1521 1523 1525 1526 1526 1526 1527 1529 1530 1531 1533 1535 1536 1538 1539 1541 1543 1545 1546 1547 1548 1549 1550 1551 1552 1552 1553 1553 1554 1555 1555 1556 1557 1558 1558 1559 1560 1561 1562 1564 1566 1567 1568 1569 1569 1570 1570 1571 1572 1573 1574 1575 1576 1577 1578 1579 1580 1580 1580 1581 1582 1583 1583 1584 1585 1585 1586 1586 1586 1587 1587 1588 1588
1495 1496 1498 1502 1505 1506 1507 1509 1512 1515 1516 1518 1520 1522 1524 1525 1525 1526 1527 1528 1530 1532 1534 1535 1537 1539 1540 1542 1544 1545 1547 1547 1548 1549 1550 1551 1552 1553 1553 1554 1554 1555 1555 1556 1557 1557 1558 1558 1559 1561 1562 1564 1565 1566 1568 1568 1569 1570 1570 1571 1572 1573 1574 1575 1576 1577 1578 1578 1579 1579 1579 1579 1580 1581 1582 1583 1583 1584 1585 1585 1585 1586 1586 1587 1587
1494 1494 1496 1499 1503 1505 1505 1506 1510 1513 1515 1517 1519 1521 1522 1524 1525 1526 1527 1528 1530 1532 1534 1536 1538 1539 1541 1542 1544 1546 1547 1548 1549 1550 1550 1551 1552 1553 1553 1553 1554 1554 1555 1556 1556 1557 1558 1559 1560 1561 1562 1564 1565 1566 1568 1568 1569 1570 1570 1571 1572 1573 1574 1576 1576 1577 1578 1577 1578 1578 1579 1578 1579 1580 1581 1581 1582 1583 1583 1583 1584 1584 1585 1586 1586
1493 1494 1494 1496 1499 1502 1504 1506 1508 1512 1514 1516 1519 1520 1521 1523 1524 1526 1527 1528 1530 1532 1535 1537 1539 1540 1542 1543 1545 1546 1547 1548 1549 1550 1551 1552 1552 1553 1553 1553 1554 1554 1555 1556 1556 1557 1558 1559 1560 1561 1563 1564 1565 1566 1568 1568 1569 1570 1570 1571 1572 1573 1574 1575 1576 1577 1577 1578 1577 1578 1578 1579 1578 1579 1580 1580 1580 1580 1581 1582 1582 1583 1583 1584 1584
1492 1493 1494 1495 1498 1501 1504 1506 1509 1512 1514 1516 1518 1520 1521 1522 1524 1526 1527 1528 1530 1533 1535 1537 1539 1541 1542 1543 1544 1546 1547 1548 1549 1550 1551 1552 1553 1553 1554 1554 1554 1555 1555 1556 1556 1558 1559 1560 1561 1562 1563 1564 1565 1566 1568 1568 1569 1569 1570 1571 1572 1573 1574 1575 1575 1576 1577 1577 1577 1577 1578 1579 1578 1578 1578 1579 1579 1579 1579 1579 1580 1580 1581 1581 1581
1490 1491 1492 1494 1497 1500 1503 1506 1509 1512 1514 1515 1518 1519 1521 1522 1524 1525 1527 1529 1531 1533 1535 1538 1540 1541 1541 1542 1543 1545 1546 1547 1549 1550 1551 1552 1553 1553 1554 1555 1555 1555 1555 1556 1557 1558 1559 1561 1562 1563 1564 1565 1566 1566 1568 1569 1569 1569 1570 1571 1572 1573 1573 1574 1575 1575 1575 1576 1577 1577 1577 1578 1578 1577 1577 1577 1577 1577 1577 1577 1577 1578 1579 1578 1578
1488 1488 1490 1493 1497 1500 1503 1505 1508 1512 1513 1515 1518 1520 1521 1523 1524 1526 1528 1530 1532 1534 1536 1538 1539 1540 1541 1541 1543 1545 1546 1547 1548 1550 1551 1552 1553 1554 1555 1555 1555 1556 1556 1556 1557 1558 1560 1561 1562 1563 1564 1565 1566 1567 1568 1569 1569 1570 1570 1571 1572 1572 1573 1573 1574 1574 1575 1575 1576 1576 1577 1577 1577 1577 1577 1576 1576 1576 1576 1576 1576 1576 1577 1576 1576
1487 1487 1488 1492 1496 1499 1502 1505 1508 1512 1514 1515 1518 1520 1522 1524 1525 1527 1528 1530 1532 1534 1536 1537 1538 1539 1540 1541 1543 1545 1546 1547 1549 1550 1551 1552 1553 1554 1555 1555 1556 1556 1556 1557 1558 1559 1560 1562 1563 1564 1565 1566 1567 1567 1568 1569 1569 1570 1570 1571 1572 1572 1572 1573 1573 1573 1574 1574 1574 1575 1575 1576 1576 1576 1576 1575 1575 1575 1576 1575 1574 1575 1575 1574 1574
1487 1487 1487 1490 1495 1498 1501 1505 1508 1512 1514 1516 1518 1520 1522 1524 1525 1526 1528 1530 1531 1533 1534 1536 1537 1539 1540 1541 1543 1544 1546 1547 1549 1550 1551 1552 1553 1554 1555 1555 1556 1557 1557 1557 1558 1559 1560 1562 1563 1564 1565 1566 1567 1567 1568 1569 1569 1570 1570 1571 1571 1572 1572 1572 1572 1573 1573 1573 1573 1573 1573 1573 1574 1574 1574 1574 1574 1574 1574 1574 1574 1574 1574 1573 1572
1487 1488 1488 1490 1494 1498 1501 1505 1508 1510 1513 1515 1518 1520 1522 1523 1524 1526 1528 1529 1531 1533 1534 1535 1537 1538 1540 1541 1543 1544 1546 1547 1549 1550 1551 1552 1553 1554 1555 1555 1556 1556 1557 1557 1558 1559 1560 1561 1562 1562 1564 1565 1566 1567 1568 1568 1568 1568 1569 1570 1570 1571 1571 1571 1572 1572 1572 1572 1572 1571 1571 1571 1571 1571 1572 1572 1572 1572 1571 1571 1572 1571 1571 1570 1570
1489 1490 1491 1493 1495 1498 1501 1504 1507 1509 1512 1515 1517 1518 1520 1521 1522 1525 1527 1529 1531 1532 1534 1535 1537 1539 1540 1542 1543 1545 1546 1547 1548 1550 1551 1552 1553 1554 1554 1555 1555 1556 1557 1557 1558 1559 1559 1560 1561 1562 1563 1564 1565 1566 1567 1567 1567 1567 1568 1569 1569 1569 1570 1570 1571 1571 1571 1570 1570 1570 1570 1570 1569 1569 1569 1569 1569 1569 1568 1568 1568 1568 1568 1567 1567
1493 1492 1493 1494 1496 1499 1502 1504 1507 1509 1512 1515 1516 1518 1519 1520 1521 1523 1526 1529 1531 1532 1533 1535 1537 1539 1540 1542 1543 1545 1546 1547 1548 1549 1551 1552 1553 1553 1554 1554 1555 1556 1557 1558 1558 1559 1559 1560 1561 1562 1563 1563 1564 1565 1566 1566 1566 1567 1567 1567 1567 1568 1568 1569 1569 1569 1569 1568 1568 1568 1568 1568 1567 1567 1566 1566 1566 1565 1565 1565 1565 1565 1565 1564 1563
1495 1495 1496 1497 1499 1501 1503 1504 1507 1509 1512 1514 1515 1517 1519 1519 1520 1522 1525 1529 1531 1532 1534 1535 1537 1539 1540 1542 1543 1544 1546 1547 1548 1549 1550 1551 1553 1553 1553 1554 1555 1556 1557 1557 1558 1559 1559 1560 1561 1562 1562 1563 1564 1565 1565 1565 1565 1565 1565 1565 1565 1566 1566 1567 1567 1567 1567 1566 1566 1566 1565 1565 1565 1564 1564 1563 1563 1561 1561 1561 1562 1562 1562 1561 1560
1497 1497 1498 1499 1500 1501 1503 1504 1507 1509 1511 1512 1514 1516 1519 1520 1522 1523 1525 1528 1530 1532 1534 1535 1537 1539 1541 1542 1543 1544 1545 1546 1547 1549 1550 1551 1552 1553 1553 1553 1554 1556 1556 1557 1558 1558 1559 1560 1560 1561 1562 1562 1563 1564 1564 1564 1564 1564 1564 1564 1564 1564 1565 1564 1564 1564 1564 1564 1563 1563 1562 1562 1561 1561 1561 1561 1560 1559 1558 1559 1559 1560 1559 1557 1556
1500 1501 1501 1501 1501 1501 1503 1504 1507 1510 1512 1513 1514 1517 1520 1522 1523 1525 1526 1528 1530 1532 1534 1535 1537 1539 1541 1542 1543 1544 1545 1546 1547 1549 1549 1550 1551 1552 1552 1552 1553 1554 1555 1556 1557 1558 1558 1559 1559 1560 1560 1560 1561 1561 1562 1562 1562 1562 1562 1562 1562 1562 1562 1562 1562 1561 1561 1560 1560 1560 1559 1559 1558 1558 1558 1558 1557 1556 1556 1555 1556 1556 1555 1553 1552
1503 1504 1504 1505 1504 1503 1504 1505 1507 1509 1512 1514 1516 1518 1521 1523 1524 1526 1527 1529 1531 1533 1534 1536 1537 1539 1540 1541 1542 1543 1545 1546 1547 1548 1549 1550 1551 1551 1551 1551 1552 1553 1554 1555 1555 1556 1557 1558 1558 1558 1559 1559 1559 1559 1560 1560 1560 1560 1560 1559 1559 1560 1560 1560 1559 1559 1558 1558 1557 1557 1557 1556 1556 1555 1555 1555 1555 1554 1553 1552 1552 1552 1551 1550 1549
1506 1506 1507 1507 1507 1507 1507 1508 1509 1511 1513 1515 1518 1519 1521 1523 1525 1526 1528 1530 1531 1533 1534 1535 1537 1538 1539 1540 1541 1542 1543 1544 1546 1547 1548 1549 1550 1550 1550 1550 1551 1552 1552 1553 1553 1554 1556 1556 1557 1557 1557 1557 1557 1557 1558 1558 1558 1558 1557 1557 1557 1557 1557 1557 1557 1556 1556 1555 1555 1555 1555 1554 1554 1553 1553 1553 1552 1552 1551 1550 1549 1549 1547 1547 1546
1510 1509 1509 1509 1510 1511 1511 1511 1512 1514 1516 1517 1519 1520 1522 1523 1525 1527 1528 1530 1531 1533 1534 1535 1536 1537 1538 1539 1539 1541 1542 1543 1545 1546 1547 1548 1548 1549 1549 1549 1549 1550 1551 1551 1552 1553 1554 1555 1555 1555 1555 1555 1555 1555 1556 1556 1556 1556 1556 1556 1555 1555 1555 1555 1554 1554 1553 1553 1553 1553 1552 1552 1552 1551 1550 1550 1550 1549 1548 1547 1547 1546 1545 1544 1544
1513 1512 1511 1512 1512 1513 1513 1514 1515 1516 1518 1519 1520 1521 1523 1524 1526 1527 1528 1530 1531 1532 1533 1534 1535 1536 1537 1538 1539 1540 1541 1542 1544 1545 1545 1546 1547 1547 1547 1547 1548 1549 1550 1551 1552 1552 1553 1553 1553 1553 1553 1554 1554 1554 1554 1554 1554 1554 1554 1554 1554 1553 1553 1553 1552 1552 1551 1551 1550 1550 1550 1550 1549 1548 1547 1547 1547 1546 1546 1545 1544 1544 1544 1543 1543
1516 1515 1514 1514 1514 1514 1515 1516 1516 1517 1519 1520 1520 1522 1523 1525 1526 1527 1528 1529 1531 1532 1533 1534 1535 1535 1536 1537 1538 1540 1541 1542 1543 1543 1544 1545 1546 1547 1547 1547 1547 1548 1549 1550 1551 1551 1552 1552 1552 1552 1552 1553 1553 1553 1553 1553 1552 1552 1552 1551 1551 1551 1550 1550 1549 1549 1549 1548 1547 1547 1547 1547 1546 1545 1545 1544 1544 1544 1543 1543 1542 1542 1541 1541 1541
1519 1518 1518 1517 1517 1517 1517 1517 1517 1518 1519 1520 1521 1522 1523 1525 1526 1528 1529 1530 1531 1532 1533 1534 1535 1535 1536 1537 1538 1540 1540 1541 1542 1543 1544 1545 1546 1546 1547 1547 1548 1548 1549 1549 1549 1550 1550 1550 1550 1550 1551 1551 1551 1552 1552 1551 1551 1550 1550 1550 1549 1549 1548 1547 1547 1546 1546 1545 1544 1544 1544 1543 1543 1543 1543 1542 1542 1542 1541 1541 1541 1540 1540 1539 1538
1522 1522 1522 1521 1520 1520 1520 1520 1520 1520 1521 1522 1523 1524 1525 1525 1526 1527 1529 1531 1532 1533 1533 1534 1535 1536 1536 1537 1538 1539 1540 1541 1542 1543 1544 1545 1545 1546 1546 1547 1547 1547 1547 1548 1548 1548 1548 1548 1548 1549 1549 1550 1550 1550 1550 1549 1549 1549 1548 1548 1547 1546 1545 1545 1545 1544 1544 1543 1543 1543 1542 1542 1541 1541 1541 1541 1540 1540 1540 1539 1539 1539 1538 1537 1537
1525 1525 1525 1524 1524 1524 1524 1524 1524 1524 1525 1525 1526 1526 1527 1528 1528 1529 1530 1531 1532 1533 1533 1534 1535 1536 1536 1537 1539 1540 1541 1542 1543 1544 1544 1545 1545 1545 1545 1546 1546 1546 1546 1546 1546 1546 1547 1547 1547 1548 1548 1549 1549 1549 1548 1548 1547 1547 1547 1546 1546 1545 1545 1545 1544 1544 1543 1543 1542 1542 1541 1541 1541 1541 1540 1540 1539 1538 1538 1538 1537 1537 1536 1536 1535
1527 1526 1526 1525 1525 1525 1525 1526 1526 1527 1527 1528 1528 1528 1529 1530 1531 1531 1532 1532 1533 1533 1533 1533 1534 1535 1536 1537 1539 1540 1541 1542 1543 1544 1544 1544 1544 1544 1544 1544 1544 1544 1544 1544 1545 1545 1545 1546 1546 1547 1548 1548 1548 1548 1547 1547 1547 1546 1546 1546 1545 1545 1545 1544 1544 1543 1543 1542 1541 1541 1540 1540 1540 1540 1539 1538 1538 1537 1537 1536 1536 1535 1535 1534 1534
1528 1527 1526 1526 1526 1526 1526 1527 1527 1528 1529 1529 1530 1530 1531 1532 1532 1533 1534 1534 1534 1534 1534 1534 1534 1535 1536 1537 1539 1540 1541 1542 1543 1543 1543 1543 1543 1543 1543 1542 1543 1543 1543 1543 1543 1544 1544 1545 1545 1546 1546 1546 1546 1546 1546 1546 1546 1546 1546 1545 1545 1544 1544 1543 1543 1543 1542 1542 1541 1540 1540 1539 1539 1538 1538 1537 1536 1536 1535 1535 1535 1534 1534 1533 1533
1530 1529 1528 1528 1527 1527 1528 1528 1528 1529 1529 1530 1530 1531 1532 1532 1533 1534 1534 1535 1536 1536 1536 1536 1536 1536 1537 1538 1539 1540 1541 1541 1542 1542 1543 1543 1542 1542 1542 1542 1542 1542 1542 1542 1542 1542 1543 1544 1544 1544 1545 1545 1545 1545 1546 1546 1546 1546 1545 1545 1544 1543 1543 1543 1542 1542 1542 1541 1540 1539 1539 1538 1537 1536 1536 1536 1535 1535 1534 1533 1533 1533 1532 1531 1531
1532 1532 1531 1531 1530 1530 1531 1531 1531 1531 1531 1531 1532 1532 1532 1532 1533 1534 1535 1536 1536 1537 1538 1538 1538 1538 1539 1539 1540 1540 1541 1541 1541 1541 1542 1542 1542 1542 1542 1542 1542 1542 1541 1541 1541 1542 1542 1543 1544 1544 1544 1544 1545 1545 1545 1546 1546 1545 1544 1543 1543 1542 1542 1542 1541 1541 1541 1540 1539 1538 1537 1536 1536 1535 1535 1534 1534 1534 1533 1532 1532 1531 1531 1530 1530
1535 1535 1535 1534 1534 1534 1534 1534 1534 1534 1533 1534 1533 1533 1533 1533 1533 1534 1535 1535 1536 1537 1538 1538 1538 1538 1539 1539 1540 1540 1541 1541 1541 1541 1541 1541 1542 1542 1542 1542 1542 1541 1541 1541 1541 1542 1543 1543 1544 1544 1544 1544 1544 1544 1545 1545 1545 1545 1543 1542 1541 1541 1541 1541 1540 1540 1540 1539 1538 1537 1536 1535 1534 1533 1533 1533 1533 1533 1533 1532 1532 1531 1530 1530 1529
1537 1537 1538 1538 1537 1537 1536 1536 1536 1535 1535 1535 1535 1534 1534 1534 1534 1534 1535 1535 1536 1536 1537 1537 1537 1538 1538 1539 1539 1540 1540 1541 1541 1541 1541 1541 1542 1542 1542 1542 1542 1542 1542 1542 1542 1542 1543 1544 1544 1544 1544 1544 1544 1544 1544 1544 1544 1544 1543 1542 1541 1541 1540 1540 1540 1540 1539 1538 1537 1536 1535 1534 1533 1533 1533 1533 1533 1533 1532 1532 1532 1531 1530 1530 1529
1539 1539 1539 1539 1539 1539 1538 1538 1537 1537 1536 1536 1536 1536 1536 1536 1535 1535 1535 1535 1536 1536 1537 1537 1537 1537 1538 1539 1539 1540 1540 1541 1541 1541 1541 1542 1542 1543 1543 1543 1542 1542 1542 1542 1542 1543 1544 1544 1545 1545 1545 1544 1544 1544 1544 1544 1543 1543 1543 1542 1541 1541 1540 1540 1540 1540 1539 1539 1538 1537 1536 1535 1534 1534 1534 1533 1533 1533 1532 1532 1531 1530 1530 1529 1528
1540 1540 1540 1540 1540 1540 1539 1539 1538 1538 1537 1537 1537 1538 1538 1537 1537 1536 1536 1536 1536 1537 1537 1537 1537 1538 1538 1539 1540 1540 1541 1541 1542 1542 1542 1542 1543 1543 1543 1542 1542 1542 1543 1543 1543 1543 1544 1544 1545 1545 1544 1544 1544 1543 1543 1542 1542 1542 1542 1541 1541 1540 1540 1540 1540 1540 1540 1539 1538 1538 1537 1536 1535 1535 1535 1534 1534 1533 1532 1532 1531 1530 1529 1528 1527
1541 1541 1541 1541 1541 1540 1540 1540 1539 1539 1539 1538 1538 1539 1539 1539 1538 1538 1538 1538 1538 1538 1538 1538 1539 1539 1539 1540 1541 1541 1542 1542 1542 1542 1543 1543 1543 1543 1542 1542 1542 1542 1543 1543 1544 1544 1544 1544 1544 1544 1544 1544 1543 1542 1542 1541 1541 1541 1541 1540 1540 1540 1539 1539 1540 1540 1540 1540 1539 1538 1537 1537 1536 1535 1535 1534 1534 1533 1532 1531 1530 1529 1528 1527 1527
1542 1541 1541 1541 1541 1541 1541 1541 1540 1540 1540 1540 1539 1540 1540 1540 1539 1539 1539 1539 1539 1539 1539 1540 1540 1540 1541 1541 1542 1542 1542 1543 1543 1543 1543 1543 1544 1544 1543 1543 1543 1543 1544 1544 1545 1545 1545 1545 1545 1545 1544 1544 1543 1542 1541 1541 1540 1540 1540 1540 1540 1539 1539 1539 1540 1540 1540 1540 1539 1538 1538 1537 1536 1535 1535 1534 1533 1533 1532 1531 1530 1529 1528 1528 1527
1543 1542 1541 1541 1541 1541 1541 1541 1541 1541 1541 1541 1541 1541 1541 1541 1540 1540 1540 1540 1540 1540 1541 1541 1541 1542 1542 1543 1543 1543 1543 1543 1544 1544 1544 1544 1544 1545 1544 1544 1544 1544 1545 1545 1545 1545 1545 1545 1545 1545 1544 1544 1543 1542 1542 1541 1541 1540 1540 1540 1540 1540 1540 1540 1540 1540 1540 1539 1539 1538 1538 1537 1536 1535 1535 1534 1533 1532 1531 1531 1530 1529 1529 1528 1528
1543 1542 1542 1541 1541 1542 1542 1542 1542 1542 1542 1542 1541 1541 1541 1542 1541 1541 1541 1541 1541 1542 1542 1542 1542 1542 1543 1543 1543 1544 1544 1544 1545 1545 1545 1545 1545 1545 1545 1545 1545 1545 1545 1546 1546 1546 1545 1545 1545 1545 1544 1544 1543 1543 1542 1542 1541 1541 1541 1541 1540 1540 1540 1540 1540 1540 1539 1539 1539 1538 1538 1537 1536 1535 1535 1534 1533 1532 1532 1531 1530 1530 1529 1528 1528
1543 1543 1542 1542 1542 1542 1543 1542 1542 1542 1542 1542 1542 1542 1542 1542 1542 1541 1541 1542 1542 1543 1543 1543 1544 1544 1544 1544 1544 1544 1544 1545 1545 1546 1546 1546 1546 1546 1545 1545 1545 1546 1546 1547 1547 1547 1546 1546 1546 1545 1545 1544 1544 1543 1543 1542 1542 1541 1541 1541 1541 1541 1540 1540 1540 1540 1539 1539 1539 1538 1537 1537 1536 1536 1535 1534 1534 1533 1532 1532 1531 1530 1529 1528 1528
1544 1543 1543 1543 1543 1543 1543 1543 1543 1542 1542 1542 1542 1542 1542 1542 1542 1542 1542 1542 1543 1544 1543 1544 1545 1545 1545 1545 1545 1545 1545 1546 1546 1546 1547 1547 1546 1546 1546 1546 1546 1547 1547 1548 1548 1547 1547 1547 1546 1546 1545 1545 1544 1544 1543 1543 1542 1542 1542 1541 1541 1541 1541 1541 1541 1540 1540 1539 1539 1538 1538 1537 1536 1536 1535 1535 1534 1533 1533 1532 1531 1530 1530 1529 1528
1545 1544 1544 1544 1543 1543 1543 1543 1543 1543 1543 1542 1543 1543 1543 1543 1544 1543 1543 1543 1544 1544 1544 1545 1545 1545 1545 1545 1545 1546 1546 1546 1546 1546 1547 1547 1547 1547 1548 1548 1548 1548 1548 1548 1548 1548 1547 1547 1547 1546 1546 1545 1545 1544 1544 1543 1543 1543 1542 1542 1542 1542 1541 1541 1541 1540 1540 1539 1539 1538 1538 1537 1537 1536 1536 1535 1534 1533 1533 1532 1532 1531 1530 1530 1529
1546 1545 1545 1544 1544 1544 1544 1543 1543 1543 1543 1543 1543 1543 1543 1544 1545 1545 1544 1544 1545 1545 1545 1545 1546 1546 1546 1546 1546 1547 1547 1547 1546 1547 1547 1547 1548 1548 1548 1549 1549 1549 1548 1548 1548 1548 1548 1547 1547 1547 1546 1546 1545 1545 1545 1544 1544 1543 1543 1542 1542 1542 1541 1541 1540 1540 1540 1539 1539 1538 1538 1537 1537 1536 1536 1535 1535 1534 1533 1532 1532 1531 1530 1530 1529
1546 1546 1546 1545 1545 1545 1544 1544 1543 1543 1543 1543 1543 1544 1544 1544 1545 1545 1545 1545 1545 1545 1546 1546 1546 1547 1547 1547 1547 1547 1547 1547 1547 1547 1547 1548 1548 1548 1549 1549 1549 1549 1549 1549 1549 1548 1548 1548 1547 1547 1547 1546 1546 1545 1545 1545 1544 1544 1543 1543 1542 1542 1541 1541 1540 1540 1539 1539 1539 1538 1538 1537 1537 1536 1536 1536 1535 1534 1533 1532 1532 1531 1530 1529 1529
1546 1546 1546 1546 1545 1545 1545 1544 1544 1543 1543 1543 1543 1544 1545 1545 1545 1546 1546 1546 1546 1546 1546 1546 1547 1547 1548 1548 1548 1548 1548 1548 1548 1548 1548 1548 1548 1549 1549 1549 1549 1549 1549 1549 1549 1549 1548 1548 1548 1547 1547 1547 1546 1546 1545 1545 1544 1544 1543 1543 1542 1542 1541 1540 1540 1540 1540 1539 1539 1538 1538 1537 1537 1536 1536 1535 1534 1534 1533 1532 1531 1531 1530 1529 1529
1547 1547 1547 1546 1546 1545 1545 1545 1544 1544 1543 1543 1543 1544 1545 1545 1545 1546 1546 1546 1547 1547 1547 1547 1547 1548 1548 1549 1549 1549 1549 1548 1548 1548 1548 1548 1548 1549 1549 1549 1549 1549 1549 1549 1549 1549 1548 1548 1548 1547 1547 1547 1546 1546 1545 1545 1544 1544 1543 1543 1542 1542 1541 1541 1540 1540 1539 1539 1539 1538 1538 1537 1537 1536 1536 1535 1534 1533 1533 1532 1531 1531 1530 1529 1529
1547 1547 1547 1547 1546 1546 1546 1546 1545 1545 1545 1544 1544 1545 1546 1545 1545 1546 1547 1547 1547 1547 1548 1548 1548 1549 1549 1548 1548 1549 1549 1548 1548 1548 1548 1549 1549 1549 1549 1549 1549 1549 1549 1549 1549 1549 1549 1548 1548 1547 1547 1547 1546 1546 1546 1545 1545 1544 1544 1543 1543 1542 1542 1541 1540 1540 1539 1539 1539 1538 1538 1537 1537 1536 1536 1535 1534 1533 1533 1532 1531 1531 1530 1529 1529
1547 1547 1547 1547 1547 1546 1546 1546 1546 1545 1545 1545 1546 1546 1546 1546 1546 1546 1547 1547 1547 1548 1548 1548 1549 1549 1548 1548 1548 1549 1549 1548 1548 1548 1548 1548 1548 1548 1549 1549 1549 1549 1549 1549 1549 1549 1549 1548 1548 1547 1547 1547 1546 1546 1546 1545 1545 1544 1544 1543 1543 1542 1542 1541 1541 1540 1539 1539 1538 1538 1538 1537 1536 1536 1535 1535 1534 1533 1533 1532 1531 1530 1530 1530 1529
1547 1546 1547 1547 1547 1547 1546 1546 1546 1545 1545 1546 1546 1545 1545 1546 1546 1546 1546 1547 1547 1547 1548 1548 1548 1549 1549 1549 1549 1549 1549 1549 1548 1548 1548 1548 1548 1548 1548 1548 1548 1548 1548 1548 1548 1548 1548 1548 1548 1547 1547 1547 1546 1546 1546 1545 1545 1544 1544 1543 1543 1542 1542 1541 1541 1540 1539 1539 1538 1538 1537 1537 1536 1536 1535 1534 1534 1533 1532 1532 1531 1530 1530 1529 1529
1546 1546 1546 1546 1547 1547 1546 1546 1546 1545 1545 1545 1545 1545 1545 1545 1545 1545 1546 1546 1547 1547 1547 1548 1548 1548 1548 1548 1548 1549 1549 1548 1548 1548 1548 1548 1548 1547 1547 1547 1548 1548 1548 1548 1548 1548 1548 1548 1547 1547 1547 1547 1546 1546 1545 1545 1544 1544 1543 1543 1543 1542 1542 1541 1541 1540 1539 1539 1538 1538 1537 1537 1536 1535 1535 1534 1533 1532 1532 1531 1530 1530 1529 1529 1528
1545 1545 1546 1546 1546 1546 1546 1546 1546 1546 1545 1544 1544 1545 1545 1545 1546 1545 1545 1546 1546 1547 1547 1547 1547 1547 1547 1547 1547 1548 1548 1547 1547 1547 1547 1547 1547 1547 1547 1547 1547 1547 1547 1547 1547 1547 1547 1547 1547 1547 1547 1546 1546 1546 1545 1545 1544 1544 1543 1543 1542 1542 1541 1541 1540 1540 1539 1539 1538 1538 1537 1536 1536 1535 1534 1533 1532 1532 1531 1530 1529 1529 1528 1528 1527
1544 1545 1545 1545 1545 1545 1545 1545 1545 1545 1545 1545 1545 1544 1544 1545 1545 1545 1545 1546 1546 1546 1546 1546 1547 1547 1547 1547 1546 1546 1547 1546 1546 1546 1546 1546 1547 1547 1547 1546 1546 1546 1546 1546 1546 1546 1546 1546 1546 1546 1546 1546 1546 1545 1545 1544 1544 1544 1543 1542 1542 1541 1541 1540 1540 1539 1538 1538 1537 1537 1536 1535 1535 1534 1533 1532 1531 1530 1529 1529 1528 1527 1527 1527 1526
1543 1544 1544 1544 1544 1544 1544 1544 1544 1544 1544 1544 1544 1544 1544 1544 1545 1545 1545 1545 1545 1545 1545 1546 1546 1546 1546 1546 1546 1546 1546 1546 1545 1545 1545 1546 1546 1546 1546 1546 1545 1545 1545 1545 1545 1545 1545 1546 1546 1546 1546 1545 1545 1545 1545 1544 1544 1543 1543 1542 1541 1540 1540 1539 1538 1538 1537 1537 1536 1536 1535 1534 1533 1532 1531 1530 1529 1528 1527 1527 1526 1525 1525 1525 1525